Date String (YYYY-MM-DD hh:mm:ss) UTC,Instrument flags,absolute air pressure of the measurement (hPa),sample flow rate (lpm),inlet stack bypass flow (lpm),air temperature of the measurement (°C),ambient temperature measured by the external sensor (°C),aerosol sample conditioner tube jacket temperature (°C),OPC LED temperature (°C),internal box temperature (°C),relative humidity of the measurement (%),span deviation,mass concentration of particles derived from Lorenz-Mie calculation of OPC scattering (μg/m³),mass concentration of particles derived from Lorenz-Mie calculation of OPC scattering (μg/m³),mass concentration of particles derived from Lorenz-Mie calculation of OPC scattering (μg/m³)
DateTimeUTC,F1_M11,P_M11,Q1_M11,Q2_M11,T1_M11,T2_M11,T3_M11,T4_M11,T5_M11,U1_M11,ZSPAN_M11,X0_M11,X2_M11,X1_M11
2023-09-29 11:00:00,SystemResetWarning,0827.1,5.00,000.00,028.5,027.0,000.0,037.0,030.2,21.6,0000.0,0021.07,0006.92,0004.86
2023-09-29 11:01:00,SystemResetWarning,0827.1,5.00,000.00,028.5,027.1,000.0,037.0,030.2,21.5,0000.0,0020.32,0006.89,0004.88
2023-09-29 11:02:00,SystemResetWarning,0827.1,4.99,000.00,028.5,027.1,000.0,037.0,030.2,21.5,0000.0,0020.04,0006.91,0004.88
2023-09-29 11:03:00,SystemResetWarning,0827.1,4.99,000.00,028.6,027.2,000.0,037.0,030.3,21.6,0000.0,0018.80,0006.85,0004.87
2023-09-29 11:04:00,SystemResetWarning,0827.1,5.00,000.00,028.6,027.2,000.0,037.1,030.3,21.6,0000.0,0018.28,0006.83,0004.86
2023-09-29 11:05:00,SystemResetWarning,0827.1,5.00,000.00,028.6,027.3,000.0,037.1,030.3,21.5,0000.0,0019.27,0006.79,0004.86
2023-09-29 11:06:00,SystemResetWarning,0827.2,5.00,000.00,028.6,027.3,000.0,037.1,030.3,21.4,0000.0,0020.60,0006.78,0004.86
2023-09-29 11:07:00,SystemResetWarning,0827.1,5.00,000.00,028.7,027.4,000.0,037.1,030.4,21.4,0000.0,0020.81,0006.70,0004.85
2023-09-29 11:08:00,SystemResetWarning,0827.2,5.00,000.00,028.7,027.4,000.0,037.1,030.4,21.3,0000.0,0021.14,0006.75,0004.85
2023-09-29 11:09:00,SystemResetWarning,0827.1,4.99,000.00,028.7,027.4,000.0,037.1,030.4,21.4,0000.0,0021.56,0006.78,0004.85
2023-09-29 11:10:00,SystemResetWarning,0827.2,5.01,000.00,028.7,027.5,000.0,037.1,030.4,21.4,0000.0,0021.46,0006.74,0004.84
2023-09-29 11:11:00,SystemResetWarning,0827.3,5.01,000.00,028.7,027.5,000.0,037.1,030.5,21.5,0000.0,0021.63,0006.70,0004.83
2023-09-29 11:12:00,SystemResetWarning,0827.2,5.00,000.00,028.7,027.5,000.0,037.1,030.5,21.4,0000.0,0021.77,0006.66,0004.82
2023-09-29 11:13:00,SystemResetWarning,0827.3,4.99,000.00,028.8,027.5,000.0,037.2,030.5,21.3,0000.0,0021.94,0006.67,0004.81
2023-09-29 11:14:00,SystemResetWarning,0827.3,4.99,000.00,028.8,027.5,000.0,037.2,030.5,21.1,0000.0,0021.15,0006.66,0004.80
2023-09-29 11:15:00,SystemResetWarning,0827.3,5.00,000.00,028.8,027.5,000.0,037.2,030.5,20.9,0000.0,0020.99,0006.72,0004.82
2023-09-29 11:16:00,SystemResetWarning,0827.2,5.00,000.00,028.8,027.6,000.0,037.2,030.5,20.9,0000.0,0021.56,0006.76,0004.80
2023-09-29 11:17:00,SystemResetWarning,0827.3,5.01,000.00,028.8,027.6,000.0,037.2,030.5,21.0,0000.0,0020.83,0006.72,0004.78
2023-09-29 11:18:00,SystemResetWarning,0827.3,5.01,000.00,028.9,027.6,000.0,037.2,030.6,21.0,0000.0,0020.68,0006.77,0004.76
2023-09-29 11:19:00,SystemResetWarning,0827.3,5.01,000.00,028.9,027.6,000.0,037.2,030.6,21.0,0000.0,0020.33,0006.79,0004.75
2023-09-29 11:20:00,SystemResetWarning,0827.4,5.00,000.00,028.9,027.6,000.0,037.3,030.6,20.9,0000.0,0019.94,0006.74,0004.74
2023-09-29 11:21:00,SystemResetWarning,0827.4,4.98,000.00,028.9,027.7,000.0,037.3,030.6,21.0,0000.0,0019.94,0006.74,0004.74
2023-09-29 11:22:00,SystemResetWarning,0827.4,4.99,000.00,028.9,027.7,000.0,037.3,030.6,21.1,0000.0,0019.92,0006.76,0004.74
2023-09-29 11:23:00,SystemResetWarning,0827.4,5.00,000.00,028.9,027.7,000.0,037.3,030.6,21.1,0000.0,0019.90,0006.80,0004.74
2023-09-29 11:24:00,SystemResetWarning,0827.4,5.00,000.00,028.9,027.7,000.0,037.3,030.6,21.1,0000.6,0019.71,0006.79,0004.74
2023-09-29 11:25:00,SystemResetWarning,0827.4,5.01,000.00,028.9,027.7,000.0,037.3,030.7,21.0,0000.0,0020.19,0006.74,0004.74
2023-09-29 11:26:00,SystemResetWarning,0827.4,5.01,000.00,029.0,027.7,000.0,037.3,030.7,21.0,0000.0,0020.82,0006.72,0004.74
2023-09-29 11:27:00,SystemResetWarning,0827.4,4.99,000.00,029.0,027.7,000.0,037.4,030.7,21.1,0000.0,0020.57,0006.76,0004.75
2023-09-29 11:28:00,SystemResetWarning,0827.4,5.00,000.00,029.0,027.7,000.0,037.4,030.7,21.1,0000.0,0020.33,0006.77,0004.76
2023-09-29 11:29:00,SystemResetWarning,0827.3,5.00,000.00,029.0,027.7,000.0,037.4,030.7,21.1,0000.0,0021.00,0006.77,0004.79
2023-09-29 11:30:00,SystemResetWarning,0827.3,5.01,000.00,029.0,027.7,000.0,037.4,030.7,21.2,0000.0,0020.94,0006.82,0004.83
2023-09-29 11:31:00,SystemResetWarning,0827.4,5.01,000.00,029.0,027.7,000.0,037.4,030.7,21.1,0000.0,0020.52,0006.84,0004.85
2023-09-29 11:32:00,SystemResetWarning,0827.4,5.00,000.00,029.0,027.7,000.0,037.4,030.7,20.8,0000.0,0020.62,0006.90,0004.88
2023-09-29 11:33:00,SystemResetWarning,0827.4,5.00,000.00,029.0,027.8,000.0,037.4,030.8,20.7,0000.0,0021.33,0006.94,0004.92
2023-09-29 11:34:00,SystemResetWarning,0827.4,5.00,000.00,029.1,027.8,000.0,037.4,030.7,20.6,0000.0,0021.42,0006.96,0004.94
2023-09-29 11:35:00,SystemResetWarning,0827.4,5.00,000.00,029.1,027.8,000.0,037.4,030.7,20.5,0000.0,0021.62,0007.01,0004.96
2023-09-29 11:36:00,SystemResetWarning,0827.5,5.00,000.00,029.1,027.8,000.0,037.5,030.7,20.4,0000.0,0023.01,0007.03,0004.98
2023-09-29 11:37:00,SystemResetWarning,0827.4,5.00,000.00,029.1,027.8,000.0,037.5,030.8,20.2,0000.0,0022.47,0007.07,0004.99
2023-09-29 11:38:00,SystemResetWarning,0827.4,5.01,000.00,029.1,027.8,000.0,037.5,030.8,20.1,0001.2,0022.04,0007.09,0005.00
2023-09-29 11:39:00,SystemResetWarning,0827.4,5.00,000.00,029.1,027.8,000.0,037.5,030.8,20.4,0000.0,0022.04,0007.08,0005.01
2023-09-29 11:40:00,SystemResetWarning,0827.4,5.00,000.00,029.1,027.8,000.0,037.5,030.8,20.6,0001.2,0021.37,0007.12,0005.02
2023-09-29 11:41:00,SystemResetWarning,0827.4,5.00,000.00,029.1,027.7,000.0,037.5,030.8,20.2,0000.4,0022.55,0007.02,0005.00
2023-09-29 11:42:00,SystemResetWarning,0827.4,4.98,000.00,029.1,026.4,000.0,037.5,030.7,20.3,0000.0,0024.39,0006.98,0004.99
2023-09-29 11:43:00,SystemResetWarning,0827.4,5.01,000.00,029.0,024.6,000.0,037.4,030.4,20.5,0000.0,0024.21,0006.91,0004.98
2023-09-29 11:44:00,SystemResetWarning,0827.4,5.01,000.00,028.9,024.3,000.0,037.3,030.2,20.7,0000.0,0023.14,0006.85,0004.97
2023-09-29 11:45:00,SystemResetWarning,0827.4,5.00,000.00,028.7,024.5,000.0,037.3,030.0,21.1,0000.0,0022.98,0006.85,0004.95
2023-09-29 11:46:00,SystemResetWarning,0827.4,4.99,000.00,028.6,024.9,000.0,037.3,030.0,20.9,0000.0,0023.14,0006.80,0004.93
2023-09-29 11:47:00,SystemResetWarning,0827.4,5.00,000.00,028.6,025.3,000.0,037.3,030.0,20.5,-000.1,0021.85,0006.82,0004.91
2023-09-29 11:48:00,SystemResetWarning,0827.4,5.01,000.00,028.5,025.6,000.0,037.2,030.0,21.2,-000.5,0021.65,0006.81,0004.89
2023-09-29 11:49:00,SystemResetWarning,0827.4,5.00,000.00,028.5,025.9,000.0,037.2,030.1,21.4,-001.3,0021.60,0006.81,0004.88
2023-09-29 11:50:00,SystemResetWarning,0827.4,4.99,000.00,028.5,026.2,000.0,037.2,030.1,21.4,-001.3,0021.18,0006.84,0004.87
2023-09-29 11:51:00,SystemResetWarning,0827.4,5.00,000.00,028.5,026.4,000.0,037.2,030.1,21.5,-001.0,0022.02,0006.80,0004.84
2023-09-29 11:52:00,SystemResetWarning,0827.4,5.00,000.00,028.5,026.5,000.0,037.1,030.1,21.6,-000.6,0020.15,0006.86,0004.85
2023-09-29 11:53:00,SystemResetWarning,0827.8,5.00,000.00,028.5,026.7,000.0,037.1,030.2,21.6,-000.6,0019.35,0006.93,0004.85
2023-09-29 11:54:00,SystemResetWarning,0827.8,5.01,000.00,028.5,026.8,000.0,037.1,030.2,21.7,-000.4,0020.84,0007.02,0004.85
2023-09-29 11:55:00,SystemResetWarning,0827.5,5.00,000.00,028.5,026.9,000.0,037.1,030.2,21.2,-000.0,0021.89,0007.08,0004.82
2023-09-29 11:56:00,SystemResetWarning,0827.4,5.00,000.00,028.5,027.0,000.0,037.1,030.2,21.4,-000.2,0023.05,0007.05,0004.81
2023-09-29 11:57:00,SystemResetWarning,0827.4,4.99,000.00,028.6,027.0,000.0,037.1,030.2,21.5,0000.0,0022.70,0007.03,0004.81
2023-09-29 11:58:00,SystemResetWarning,0827.5,4.99,000.00,028.6,027.1,000.0,037.1,030.3,21.9,0000.0,0023.13,0007.05,0004.81
2023-09-29 11:59:00,SystemResetWarning,0827.7,5.00,000.00,028.6,027.1,000.0,037.1,030.3,21.9,0000.0,0023.79,0007.02,0004.80
